カタログに戻る

STARLINK-30769

運用中通信VLEO
NORAD 58138·PAYLOAD·🇺🇸 United States

打ち上げ Oct 22, 2023 から Cape Canaveral Space Force Station

Loading…

次のパス (今後24時間)

TLE

最新Source: CelesTrak SupGP

元期: Sep 15, 2026, 03:17 UTC

1 58138C 23162W   26258.13729167  .00062811  00000+0  22740-2 0  2580
2 58138  43.0017 142.2933 0001410 270.2789 106.8006 15.27561396    14

AllMySatでSTARLINK-30769をリアルタイム追跡

Download on the App Store